Location: Palomar Mountain Lodge
(33.3110°N, 116.8495°W)
Time: 21:21:38
(UTC-07:00)

Daily predictions for brighter satellites

Satellite Brightness Start Highest point End
(mag) Time Altitude Azimuth Time Altitude Azimuth Time Altitude Azimuth
CZ-4 DEB 3.4 20:22:35 10° SE 20:25:33 38° ENE 20:28:33 10° N
Cosmos 1151 Rocket 4.2 20:23:32 10° NNE 20:27:07 25° ENE 20:30:42 10° SE
OE (NEXTSAT) 4.4 20:24:26 10° NW 20:28:01 86° NNE 20:31:34 10° SE
DELTA 2 R/B (1) 3.8 20:28:22 10° WNW 20:33:54 67° NNE 20:39:25 10° ESE
ATLAS CENTAUR R/B 3.8 20:34:47 10° WNW 20:37:55 20° WSW 20:40:53 10° SSW
Meteor 1-21 Rocket 4.3 20:32:30 10° S 20:38:02 86° W 20:43:35 10° N
H-2A R/B 1.9 20:35:45 10° SW 20:39:12 23° S 20:40:40 12° ESE
Cosmos 1441 Rocket 3.7 20:35:36 10° SSW 20:39:19 64° W 20:43:02 10° N
Cosmos 405 3.8 20:37:24 10° NNE 20:40:44 34° ENE 20:44:02 10° SE
Cosmos 2219 3.3 20:35:33 10° S 20:41:08 55° ESE 20:46:44 10° NNE
USA 186 1.4 20:40:19 10° S 20:42:30 57° W 20:44:46 10° NNW
Cosmos 1680 Rocket 4.1 20:40:03 10° N 20:44:59 40° ENE 20:49:39 11° SE
FENGYUN 3A 4.0 20:43:13 10° S 20:48:36 70° WSW 20:54:00 10° NNW
Meteor 2-2 Rocket 4.4 20:43:47 10° N 20:49:48 71° E 20:55:48 10° SSE
Cosmos 923 Rocket 4.1 20:45:22 10° N 20:50:31 61° ENE 20:55:32 10° SSE
Cosmos 2322 Rocket 3.2 20:46:25 10° NW 20:51:43 44° WSW 20:57:00 10° S
Cosmos 1898 Rocket 4.3 20:48:16 10° SSE 20:52:43 30° E 20:57:12 10° NE
Cosmos 2322 3.9 20:49:19 10° NNW 20:54:57 60° ENE 21:00:01 13° SE
Cosmos 2266 Rocket 4.0 20:49:16 10° S 20:55:33 77° E 21:01:45 10° N
Cosmos 773 Rocket 4.0 20:50:58 10° NNW 20:56:12 89° WSW 21:01:26 10° SSE
Cosmos 1437 2.7 20:54:45 10° S 20:58:00 69° E 21:01:14 10° NNE
OTV 4 0.3 20:55:07 10° WSW 20:58:02 61° SSE 21:00:58 10° ENE
Cosmos 2360 Rocket 2.2 20:53:43 10° NNW 20:59:21 68° ENE 21:04:20 13° SSE
H-2A R/B 2.5 20:56:25 12° SSE 21:00:23 51° ENE 21:04:45 10° N
Cosmos 1674 3.0 20:59:57 10° SSW 21:03:44 68° W 21:07:34 10° N
SL-16 R/B 3.6 20:59:38 10° NW 21:04:46 37° WSW 21:09:54 10° S
Cosmos 1666 Rocket 4.5 21:03:01 16° SE 21:05:42 29° E 21:09:31 10° NNE
NOSS 3-1 (A) 3.3 21:00:09 10° SSW 21:05:49 65° ESE 21:12:01 10° NE
Cosmos 2150 Rocket 4.4 21:00:58 10° S 21:06:04 44° ESE 21:11:13 10° NNE
Cosmos 1908 3.3 21:04:33 10° N 21:08:27 82° W 21:12:18 10° S
YAOGAN 11 4.5 21:04:28 10° S 21:08:43 62° WSW 21:13:02 10° NNW
Cosmos 2315 Rocket 4.2 21:07:44 10° N 21:13:47 53° E 21:18:27 17° SSE
ERBS 2.4 21:14:36 10° SSW 21:18:01 52° SE 21:21:25 10° NE
CZ-4 SHROUD 4.1 21:18:06 27° ESE 21:18:57 32° ENE 21:21:47 10° N
Tiangong 1 3.4 21:16:34 10° WNW 21:19:11 24° NNW 21:21:48 10° NE
ALOS 4.3 21:17:58 10° SSW 21:21:48 25° W 21:25:37 10° NW
Cosmos 1300 3.3 21:20:00 10° N 21:23:35 37° E 21:24:50 29° ESE
Cosmos 2227 Rocket 3.0 21:21:20 21° SE 21:24:00 30° ESE 21:28:51 10° NE
ERS-1 Rocket 3.4 21:19:38 10° S 21:24:35 61° WSW 21:29:34 10° NNW
OAO 2 Rocket 3.4 21:21:54 10° WSW 21:27:14 88° N 21:32:34 10° ENE
ATLAS 2AS CENTAUR R/B 3.4 21:21:23 10° S 21:27:56 38° ESE 21:35:00 10° NE
Envisat 2.9 21:25:39 18° SSE 21:29:25 86° ENE 21:34:30 10° NNW
Cosmos 2151 4.1 21:29:53 10° SSW 21:33:52 43° W 21:37:53 10° N
MetOp-A 4.2 21:32:42 26° SE 21:35:41 60° ENE 21:40:57 10° N
Cosmos 2058 3.1 21:33:57 12° SSW 21:37:42 70° W 21:41:48 10° N
Meteor 1-11 4.2 21:32:29 10° S 21:38:15 84° E 21:43:59 10° N
Hubble Space Telescope 1.6 21:35:34 10° SW 21:39:08 32° S 21:39:08 32° S
Cosmos 1745 Rocket 4.5 21:36:47 26° SE 21:39:38 41° E 21:45:20 10° NNE
Delta 2 Rocket 3.1 21:37:37 10° WNW 21:41:16 64° N 21:42:30 35° ENE
Sakura Rocket 3.8 21:39:04 10° SW 21:42:17 28° S 21:42:17 28° S
Cosmos 1455 4.3 21:43:30 10° NE 21:45:10 14° ENE 21:45:10 14° ENE
ARGOS 3.7 21:45:01 31° ESE 21:47:01 43° ENE 21:52:05 10° N
Cosmos 2333 Rocket 3.4 21:42:35 10° N 21:47:34 30° ENE 21:49:33 24° E
CZ-4 R/B 4.1 21:43:12 10° NNE 21:47:56 48° E 21:49:17 37° SE
Cosmos 1937 Rocket 3.4 21:43:30 14° S 21:48:04 78° ESE 21:53:16 10° NNE
PSLV R/B 3.3 21:49:43 58° SSW 21:50:07 68° W 21:53:09 10° NNW
Cosmos 2297 Rocket 2.7 21:49:41 33° SE 21:50:35 35° ESE 21:55:40 10° NE
Cosmos 1726 2.0 21:49:08 10° N 21:52:55 74° E 21:53:31 59° SE
Cosmos 990 Rocket 3.9 21:53:14 32° S 21:55:29 62° ESE 22:00:34 10° NNE
Sich 1 3.1 21:54:15 26° SSW 21:56:42 75° W 22:01:05 10° N
Cosmos 2219 Rocket 2.6 21:53:33 10° N 21:58:57 48° ENE 22:00:37 37° ESE
COSMOS 2428 2.7 21:53:52 10° NNW 21:59:32 77° WSW 22:02:02 35° S
Cosmos 1633 Rocket 3.3 22:01:04 28° SSW 22:03:17 66° W 22:07:38 10° N
Meteor 1-4 Rocket 2.5 22:02:00 10° N 22:05:37 72° ENE 22:05:37 72° ENE
Cosmos 2242 Rocket 3.5 22:04:13 10° N 22:08:42 80° E 22:09:28 61° SSE
CZ-4B R/B 3.9 22:06:33 10° N 22:11:45 65° WNW 22:15:17 20° SSW
SPOT 5 3.7 22:09:53 25° SSW 22:12:00 41° W 22:16:31 10° NNW
Meteor 2-10 4.2 22:06:54 10° N 22:12:36 66° E 22:14:04 48° SE
DELTA 2 R/B (1) 4.1 22:15:04 10° WNW 22:20:13 40° SW 22:20:46 39° SSW
Cosmos 1980 3.9 22:16:15 10° N 22:21:47 54° ENE 22:22:45 48° ESE
Cosmos 292 Rocket 3.7 22:19:47 10° NNW 22:24:32 76° WSW 22:25:06 65° SSW
Cosmos 1271 Rocket 3.1 22:23:47 10° NNW 22:27:29 59° W 22:27:29 59° W
H-2A R/B 2.3 22:27:08 50° E 22:27:43 52° ENE 22:32:59 10° N
CZ-4C R/B 4.1 22:30:31 40° N 22:30:31 40° N 22:32:53 10° N
Iridium 2 4.1 22:29:37 58° WNW 22:29:37 58° WNW 22:33:16 10° N
DELTA 2 DEB (DPAF) 4.1 22:29:50 73° ENE 22:29:50 73° ENE 22:34:14 10° N
Cosmos 1626 2.8 22:31:10 50° N 22:31:10 50° N 22:34:01 10° N
Landsat 7 3.7 22:32:29 73° E 22:32:35 74° ENE 22:37:20 10° N
Cosmos 2237 Rocket 2.2 22:28:08 10° NNW 22:33:47 64° ENE 22:34:29 58° ESE
OTV 4 3.1 22:31:43 10° W 22:32:49 19° WNW 22:32:49 19° WNW
Cosmos 2082 4.1 22:31:20 21° SW 22:35:10 63° WNW 22:40:50 10° NNE
YAOGAN 6 4.4 22:36:33 25° W 22:36:38 25° W 22:39:39 10° NW
SPOT 1/Viking Rocket 4.3 22:39:08 37° SW 22:40:23 44° W 22:45:18 10° NNW
Cosmos 1125 Rocket 3.5 22:40:43 67° E 22:40:43 67° E 22:45:46 10° NNE
Terra 1.9 22:48:51 69° NNE 22:48:51 69° NNE 22:53:12 10° N
SL-08 RB Rocket 4.3 22:49:12 46° W 22:49:12 46° W 22:53:31 10° NNW
Tiangong 1 4.2 22:54:43 10° NW 22:56:26 14° N 22:56:26 14° N
Spot 4 4.1 23:00:39 64° NNE 23:00:39 64° NNE 23:04:51 10° N
Cosmos 2227 Rocket 3.8 23:03:02 10° WSW 23:07:55 30° WNW 23:12:53 10° N
BREEZE-M DEB (TANK) 4.2 23:12:41 39° NNE 23:12:41 39° NNE 23:17:37 10° NE
OAO 2 Rocket 3.7 23:06:56 10° W 23:11:34 64° NW 23:11:34 64° NW
Lacrosse 4 Rocket 2.8 23:13:25 10° NNW 23:16:24 38° N 23:16:24 38° N
ATLAS 2AS CENTAUR R/B 4.0 23:11:49 10° WSW 23:18:48 42° NW 23:26:20 10° NNE
Cosmos 1455 4.5 23:18:15 10° NW 23:20:13 21° WNW 23:20:13 21° WNW
SL-16 R/B 2.4 23:23:09 10° NNW 23:28:10 69° N 23:28:10 69° N
Cosmos 2074 Rocket 4.2 23:29:40 58° ENE 23:29:40 58° ENE 23:35:12 10° NNE
Cosmos 2333 Rocket 3.4 23:26:42 10° NW 23:31:34 32° W 23:31:34 32° W
Cosmos 1709 Rocket 4.5 23:32:07 47° WSW 23:32:51 49° W 23:38:44 10° N
ATLAS 3B R/B 2.5 23:26:56 10° NNW 23:33:49 84° NE 23:33:49 84° NE
Cosmos 2297 Rocket 4.0 23:31:24 16° WSW 23:34:37 26° WNW 23:39:19 10° N
Cosmos 2219 Rocket 4.1 23:38:47 10° WNW 23:42:21 18° W 23:42:21 18° W
COSMOS 2455 3.1 23:39:02 10° NNW 23:44:11 62° WNW 23:44:11 62° WNW
USA 238 DEB 4.2 23:42:06 10° NNW 23:48:54 50° NE 23:49:31 49° ENE
USA 238 4.2 23:42:12 10° NNW 23:49:00 50° NE 23:49:38 49° ENE
